�������l�o���
Date,Time,MP-1(��Sv/h),MP-2(��Sv/h),MP-3(��Sv/h),MP-4(��Sv/h),MP-5(��Sv/h),MP-6(��Sv/h),MP-7(��Sv/h),MP-8(��Sv/h),����,����(m/s),���J
2018/02/20,00:00,0.888,1.490,0.928,1.744,1.202,0.485,0.865,0.837,���k��,4.3,��
2018/02/20,00:10,0.890,1.490,0.929,1.739,1.203,0.488,0.865,0.835,��,3.3,��
2018/02/20,00:20,0.887,1.493,0.929,1.740,1.203,0.487,0.866,0.836,��,3.2,��
2018/02/20,00:30,0.886,1.490,0.927,1.740,1.205,0.487,0.867,0.837,���쐼,2.6,��
2018/02/20,00:40,0.888,1.487,0.928,1.743,1.201,0.486,0.867,0.834,��,1.7,��
2018/02/20,00:50,0.887,1.489,0.929,1.742,1.204,0.486,0.868,0.835,�k��,2.5,��
2018/02/20,01:00,0.887,1.490,0.928,1.741,1.202,0.487,0.867,0.837,���k��,2.3,��
2018/02/20,01:10,0.887,1.488,0.929,1.740,1.201,0.486,0.867,0.837,��,1.2,��
2018/02/20,01:20,0.887,1.494,0.929,1.744,1.204,0.485,0.868,0.836,��쐼,1.2,��
2018/02/20,01:30,0.886,1.490,0.926,1.741,1.203,0.487,0.867,0.836,��,1.2,��
2018/02/20,01:40,0.885,1.490,0.927,1.741,1.199,0.485,0.866,0.837,��,0.9,��
2018/02/20,01:50,0.888,1.488,0.928,1.740,1.204,0.486,0.866,0.837,�쓌,0.9,��
2018/02/20,02:00,0.887,1.490,0.929,1.741,1.202,0.486,0.867,0.836,��쓌,1.5,��
2018/02/20,02:10,0.887,1.492,0.928,1.739,1.199,0.487,0.867,0.835,��,1.9,��
2018/02/20,02:20,0.886,1.490,0.928,1.739,1.202,0.487,0.866,0.837,��,2.0,��
2018/02/20,02:30,0.889,1.488,0.926,1.744,1.203,0.488,0.867,0.837,��쓌,3.5,��
2018/02/20,02:40,0.886,1.488,0.928,1.741,1.202,0.486,0.865,0.837,��,4.2,��
2018/02/20,02:50,0.887,1.489,0.926,1.739,1.202,0.487,0.867,0.837,��쓌,6.0,��
2018/02/20,03:00,0.887,1.490,0.925,1.737,1.201,0.488,0.865,0.836,��쓌,5.7,��
2018/02/20,03:10,0.887,1.489,0.927,1.742,1.201,0.487,0.866,0.835,��,6.2,��
2018/02/20,03:20,0.887,1.491,0.927,1.741,1.201,0.487,0.868,0.838,��쓌,6.3,��
2018/02/20,03:30,0.888,1.488,0.930,1.740,1.203,0.486,0.866,0.835,��쓌,6.6,��
2018/02/20,03:40,0.888,1.488,0.929,1.743,1.201,0.487,0.867,0.837,��,5.9,��
2018/02/20,03:50,0.886,1.490,0.929,1.740,1.204,0.488,0.868,0.838,��,6.5,��
2018/02/20,04:00,0.887,1.489,0.928,1.743,1.204,0.487,0.868,0.837,��,7.0,��
2018/02/20,04:10,0.889,1.489,0.929,1.739,1.201,0.486,0.867,0.836,��,7.7,��
2018/02/20,04:20,0.887,1.490,0.928,1.743,1.203,0.487,0.868,0.835,��,8.6,��
2018/02/20,04:30,0.888,1.489,0.931,1.741,1.201,0.486,0.868,0.835,��,8.6,��
2018/02/20,04:40,0.885,1.491,0.929,1.744,1.202,0.487,0.866,0.836,��,8.9,��
2018/02/20,04:50,0.886,1.490,0.928,1.740,1.204,0.488,0.868,0.838,��,8.1,��
2018/02/20,05:00,0.887,1.487,0.929,1.740,1.200,0.487,0.869,0.835,��,6.3,��
2018/02/20,05:10,0.888,1.489,0.927,1.740,1.201,0.486,0.869,0.837,��,5.3,��
2018/02/20,05:20,0.887,1.487,0.928,1.738,1.201,0.486,0.866,0.836,��,4.2,��
2018/02/20,05:30,0.886,1.487,0.927,1.740,1.200,0.487,0.867,0.838,��,3.6,��
2018/02/20,05:40,0.888,1.491,0.926,1.742,1.200,0.487,0.868,0.836,�쓌,1.1,��
2018/02/20,05:50,0.888,1.493,0.927,1.740,1.201,0.487,0.867,0.837,��,0.9,��
2018/02/20,06:00,0.888,1.488,0.927,1.739,1.202,0.486,0.868,0.836,�k��,1.2,��
2018/02/20,06:10,0.886,1.490,0.927,1.742,1.204,0.487,0.867,0.835,�k��,3.3,��
2018/02/20,06:20,0.887,1.489,0.928,1.741,1.202,0.486,0.866,0.836,�k�k��,4.0,��
2018/02/20,06:30,0.888,1.490,0.928,1.742,1.204,0.487,0.866,0.836,�k��,3.2,��
2018/02/20,06:40,0.886,1.488,0.927,1.741,1.203,0.486,0.866,0.837,�k��,3.2,��
2018/02/20,06:50,0.888,1.489,0.929,1.743,1.211,0.488,0.868,0.834,�k��,3.7,��
2018/02/20,07:00,0.889,1.490,0.929,1.740,1.201,0.486,0.867,0.837,���k��,3.9,��
2018/02/20,07:10,0.888,1.490,0.930,1.742,1.202,0.486,0.867,0.835,�k��,3.1,��
2018/02/20,07:20,0.889,1.489,0.928,1.742,1.201,0.487,0.867,0.837,�k��,3.1,��
2018/02/20,07:30,0.887,1.490,0.928,1.742,1.203,0.487,0.867,0.836,�k��,3.4,��
2018/02/20,07:40,0.889,1.492,0.929,1.741,1.202,0.486,0.867,0.836,�k��,3.5,��
2018/02/20,07:50,0.888,1.487,0.929,1.744,1.201,0.488,0.869,0.838,�k��,3.1,��
2018/02/20,08:00,0.889,1.489,0.928,1.743,1.202,0.487,0.869,0.837,�k�k��,3.6,��
2018/02/20,08:10,0.889,1.491,0.930,1.740,1.202,0.487,0.869,0.837,�k��,4.3,��
2018/02/20,08:20,0.890,1.492,0.931,1.741,1.204,0.487,0.868,0.837,�k��,5.0,��
2018/02/20,08:30,0.888,1.486,0.927,1.743,1.204,0.486,0.869,0.838,�k��,4.3,��
2018/02/20,08:40,0.891,1.490,0.927,1.740,1.202,0.486,0.870,0.839,�k��,3.4,��
2018/02/20,08:50,0.888,1.489,0.929,1.745,1.202,0.487,0.870,0.837,��,3.5,��
2018/02/20,09:00,0.888,1.488,0.929,1.745,1.203,0.486,0.870,0.837,��,3.8,��
2018/02/20,09:10,0.887,1.489,0.928,1.746,1.204,0.486,0.869,0.837,��,3.9,��
2018/02/20,09:20,0.889,1.487,0.929,1.746,1.204,0.487,0.869,0.838,��,2.6,��
2018/02/20,09:30,0.891,1.484,0.930,1.744,1.203,0.486,0.867,0.837,���쐼,3.0,��
2018/02/20,09:40,0.892,1.485,0.929,1.743,1.203,0.487,0.869,0.836,���k��,2.3,��
2018/02/20,09:50,0.891,1.485,0.929,1.746,1.204,0.487,0.868,0.838,�k��,1.7,��
2018/02/20,10:00,0.889,1.482,0.928,1.744,1.205,0.487,0.867,0.837,�k,2.0,��
2018/02/20,10:10,0.889,1.485,0.931,1.746,1.205,0.488,0.868,0.839,���k��,4.2,��
2018/02/20,10:20,0.891,1.486,0.928,1.745,1.207,0.487,0.867,0.837,�k��,3.7,��
2018/02/20,10:30,0.891,1.484,0.930,1.746,1.206,0.488,0.865,0.838,���k��,4.5,��
2018/02/20,10:40,0.891,1.484,0.928,1.749,1.205,0.488,0.868,0.839,�k��,4.1,��
2018/02/20,10:50,0.888,1.482,0.929,1.745,1.205,0.487,0.867,0.838,�k��,5.1,��
2018/02/20,11:00,0.890,1.488,0.927,1.744,1.205,0.487,0.866,0.839,�k��,4.9,��
2018/02/20,11:10,0.890,1.486,0.925,1.745,1.208,0.489,0.868,0.838,�k��,4.3,��
2018/02/20,11:20,0.889,1.487,0.927,1.744,1.207,0.488,0.866,0.840,�k��,3.7,��
2018/02/20,11:30,0.892,1.486,0.929,1.747,1.208,0.487,0.866,0.839,�k��,4.2,��
2018/02/20,11:40,0.893,1.487,0.930,1.747,1.209,0.488,0.866,0.838,�k��,4.2,��
2018/02/20,11:50,0.892,1.485,0.929,1.747,1.207,0.488,0.866,0.838,�k��,4.0,��
2018/02/20,12:00,0.891,1.489,0.932,1.746,1.205,0.488,0.868,0.839,�k��,4.8,��
2018/02/20,12:10,0.893,1.488,0.930,1.745,1.203,0.488,0.867,0.838,�k��,4.2,��
2018/02/20,12:20,0.892,1.491,0.929,1.747,1.205,0.489,0.869,0.837,�k��,4.5,��
2018/02/20,12:30,0.893,1.487,0.932,1.746,1.203,0.488,0.868,0.839,�k��,3.7,��
2018/02/20,12:40,0.893,1.489,0.933,1.747,1.207,0.487,0.867,0.838,�k��,4.6,��
2018/02/20,12:50,0.891,1.490,0.932,1.748,1.207,0.488,0.867,0.838,�k��,5.4,��
2018/02/20,13:00,0.892,1.492,0.932,1.745,1.207,0.487,0.868,0.838,�k��,5.4,��
2018/02/20,13:10,0.892,1.488,0.931,1.745,1.207,0.488,0.867,0.839,�k��,4.8,��
2018/02/20,13:20,0.891,1.494,0.929,1.747,1.207,0.488,0.867,0.839,�k��,4.9,��
2018/02/20,13:30,0.892,1.491,0.928,1.746,1.207,0.488,0.868,0.837,�k��,4.1,��
2018/02/20,13:40,0.893,1.493,0.930,1.749,1.207,0.488,0.865,0.839,�k��,4.7,��
2018/02/20,13:50,0.893,1.490,0.929,1.748,1.206,0.489,0.868,0.836,���k��,4.7,��
2018/02/20,14:00,0.892,1.490,0.930,1.750,1.204,0.489,0.867,0.839,�k��,5.4,��
2018/02/20,14:10,0.892,1.489,0.932,1.747,1.206,0.487,0.867,0.835,�k��,4.4,��
2018/02/20,14:20,0.893,1.492,0.931,1.750,1.209,0.489,0.867,0.837,�k��,3.3,��
2018/02/20,14:30,0.894,1.489,0.933,1.747,1.208,0.489,0.870,0.835,�k��,4.2,��
2018/02/20,14:40,0.892,1.488,0.933,1.748,1.206,0.488,0.869,0.834,���k��,2.8,��
2018/02/20,14:50,0.893,1.492,0.933,1.746,1.209,0.487,0.867,0.836,�k��,4.3,��
2018/02/20,15:00,0.893,1.489,0.933,1.747,1.207,0.491,0.870,0.836,�k��,4.4,��
2018/02/20,15:10,0.894,1.488,0.931,1.748,1.210,0.489,0.867,0.835,�k��,1.5,��
2018/02/20,15:20,0.893,1.493,0.931,1.750,1.207,0.488,0.870,0.835,���k��,3.6,��
2018/02/20,15:30,0.893,1.492,0.931,1.749,1.208,0.489,0.870,0.837,�k�k��,5.0,��
2018/02/20,15:40,0.893,1.495,0.931,1.750,1.207,0.490,0.870,0.838,�k�k��,4.7,��
2018/02/20,15:50,0.895,1.496,0.932,1.748,1.208,0.488,0.869,0.839,�k�k��,1.7,��
2018/02/20,16:00,0.894,1.493,0.931,1.750,1.205,0.489,0.868,0.838,�k��,0.6,��
2018/02/20,16:10,0.893,1.492,0.933,1.750,1.207,0.488,0.870,0.838,��,3.2,��
2018/02/20,16:20,0.892,1.495,0.933,1.747,1.209,0.488,0.870,0.838,�k,2.5,��
2018/02/20,16:30,0.892,1.495,0.932,1.748,1.211,0.487,0.869,0.840,�k,2.8,��
2018/02/20,16:40,0.891,1.493,0.931,1.750,1.210,0.489,0.872,0.838,�k��,6.0,��
2018/02/20,16:50,0.892,1.494,0.932,1.751,1.209,0.489,0.872,0.837,�k��,7.4,��
2018/02/20,17:00,0.892,1.497,0.934,1.750,1.212,0.491,0.871,0.840,�k�k��,7.5,��
2018/02/20,17:10,0.892,1.497,0.933,1.747,1.213,0.490,0.873,0.838,���k��,2.2,��
2018/02/20,17:20,0.894,1.496,0.935,1.748,1.210,0.489,0.870,0.839,��쐼,2.2,��
2018/02/20,17:30,0.897,1.493,0.935,1.750,1.207,0.489,0.870,0.838,���쐼,2.0,��
2018/02/20,17:40,0.892,1.496,0.933,1.748,1.209,0.491,0.871,0.838,��쐼,2.6,��
2018/02/20,17:50,0.892,1.495,0.932,1.747,1.209,0.490,0.870,0.838,��쐼,2.3,��
2018/02/20,18:00,0.893,1.494,0.932,1.748,1.207,0.489,0.872,0.837,��,2.9,��
2018/02/20,18:10,0.892,1.496,0.933,1.746,1.212,0.489,0.871,0.838,��,1.5,��
2018/02/20,18:20,0.892,1.494,0.932,1.748,1.208,0.489,0.870,0.839,��,1.5,��
2018/02/20,18:30,0.891,1.495,0.931,1.746,1.209,0.489,0.870,0.837,�쐼,0.9,��
2018/02/20,18:40,0.893,1.492,0.932,1.747,1.208,0.488,0.870,0.840,��쐼,1.9,��
2018/02/20,18:50,0.893,1.494,0.931,1.745,1.207,0.489,0.871,0.836,�쐼,2.9,��
2018/02/20,19:00,0.890,1.496,0.932,1.747,1.208,0.488,0.869,0.836,��쐼,2.5,��
2018/02/20,19:10,0.891,1.496,0.932,1.746,1.210,0.489,0.870,0.838,��쐼,3.4,��
2018/02/20,19:20,0.893,1.495,0.933,1.745,1.205,0.489,0.869,0.836,��,4.0,��
2018/02/20,19:30,0.891,1.493,0.933,1.744,1.207,0.488,0.870,0.838,��쐼,4.2,��
2018/02/20,19:40,0.891,1.492,0.931,1.747,1.209,0.489,0.868,0.837,��쐼,4.2,��
2018/02/20,19:50,0.893,1.494,0.932,1.745,1.209,0.489,0.870,0.837,��쐼,2.3,��
2018/02/20,20:00,0.892,1.497,0.931,1.747,1.207,0.487,0.869,0.837,�쐼,2.3,��
2018/02/20,20:10,0.892,1.495,0.933,1.749,1.208,0.489,0.869,0.837,�쐼,3.4,��
2018/02/20,20:20,0.890,1.494,0.931,1.745,1.210,0.488,0.869,0.838,��쐼,4.6,��
2018/02/20,20:30,0.891,1.496,0.930,1.748,1.207,0.490,0.870,0.838,�쐼,3.6,��
2018/02/20,20:40,0.893,1.495,0.933,1.748,1.210,0.488,0.870,0.838,��쐼,3.0,��
2018/02/20,20:50,0.893,1.493,0.930,1.748,1.209,0.488,0.869,0.836,��쐼,3.5,��
2018/02/20,21:00,0.890,1.495,0.931,1.749,1.209,0.489,0.870,0.839,�쐼,2.5,��
2018/02/20,21:10,0.892,1.496,0.932,1.747,1.208,0.488,0.869,0.838,���쐼,2.3,�L
2018/02/20,21:20,0.891,1.496,0.933,1.747,1.208,0.488,0.870,0.837,���k��,1.7,��
2018/02/20,21:30,0.894,1.494,0.932,1.748,1.208,0.488,0.869,0.839,�k,1.9,��
2018/02/20,21:40,0.893,1.494,0.930,1.749,1.206,0.488,0.870,0.837,�k�k��,2.6,��
2018/02/20,21:50,0.892,1.495,0.933,1.750,1.211,0.488,0.869,0.838,�k,3.0,�L
2018/02/20,22:00,0.891,1.495,0.931,1.748,1.208,0.489,0.869,0.838,�k,5.0,�L
2018/02/20,22:10,0.893,1.495,0.929,1.750,1.207,0.488,0.870,0.838,�k�k��,5.0,�L
2018/02/20,22:20,0.893,1.497,0.932,1.746,1.205,0.488,0.870,0.837,�k�k��,5.5,�L
2018/02/20,22:30,0.891,1.494,0.931,1.748,1.210,0.487,0.872,0.836,�k�k��,5.3,�L
2018/02/20,22:40,0.892,1.496,0.932,1.747,1.209,0.489,0.868,0.837,�k,4.7,�L
2018/02/20,22:50,0.893,1.496,0.932,1.745,1.209,0.487,0.868,0.837,�k,4.9,�L
2018/02/20,23:00,0.892,1.497,0.931,1.748,1.209,0.488,0.869,0.838,�k�k��,4.4,�L
2018/02/20,23:10,0.892,1.494,0.933,1.751,1.208,0.489,0.871,0.836,�k�k��,3.1,�L
2018/02/20,23:20,0.890,1.493,0.932,1.749,1.208,0.490,0.870,0.840,�k�k��,2.2,�L
2018/02/20,23:30,0.893,1.495,0.932,1.751,1.209,0.489,0.870,0.836,�k,1.5,�L
2018/02/20,23:40,0.892,1.495,0.932,1.751,1.211,0.492,0.870,0.840,�k��,1.9,�L
2018/02/20,23:50,0.890,1.495,0.931,1.747,1.208,0.494,0.872,0.841,�쐼,3.5,�L
